Regional Weather Roundup
Issued by NWS

Home | Current Version | Previous Version | Graphics & Text | Print | Product List | Glossary On
Versions: 1 2 3 4 5 6 7 8 9 10 11 12 13 14 15 16 17 18 19 20 21 22 23 24 25 26 27 28 29 30 31 32 33 34 35 36 37 38 39 40 41 42 43 44 45 46 47 48 49 50
000
ASUS43 KOAX 040110
RWRNE

WEATHER ROUNDUP FOR NEBRASKA
NATIONAL WEATHER SERVICE OMAHA NE
800 PM CDT MON AUG 03 2015

NOTES: SATELLITE DATA IS BEING USED TO AUGMENT CLOUD COVER ABOVE
       12000 FEET.
       "FAIR" INDICATES FEW OR NO CLOUDS BELOW 12,000 FEET WITH NO
       SIGNIFICANT WEATHER AND/OR OBSTRUCTIONS TO VISIBILITY.

  * THESE STATIONS DO NOT REPORT WEATHER SUCH AS RAIN...SNOW OR FOG.

NEZ001>004-019>022-054>056-040200-
NEBRASKA PANHANDLE

CITY           SKY/WX    TMP DP  RH WIND       PRES   REMARKS
SCOTTSBLUFF    PTSUNNY   84  51  31 S3        29.95R
ALLIANCE       PTSUNNY   83  61  47 S12       29.95R
CHADRON        PTSUNNY   87  59  38 S5        29.90R
KIMBALL        CLOUDY    81  46  30 S9        30.01F
SIDNEY         CLOUDY    83  59  44 S10       30.00S
$$

NEZ057>060-069>072-079>082-040200-
SOUTHWEST NEBRASKA

CITY           SKY/WX    TMP DP  RH WIND       PRES   REMARKS
NORTH PLATTE   MOCLDY    80  70  71 E8        29.94R
IMPERIAL       MOCLDY    84  67  56 SE12      29.95S
LEXINGTON      MOCLDY    80  70  73 E14       29.94S
MCCOOK         MOCLDY    84  69  60 E10       29.92S
OGALLALA       PTSUNNY   81  68  63 SE7       29.95S
$$

NEZ005>010-023>029-035>040-094-040200-
NORTH CENTRAL NEBRASKA

CITY           SKY/WX    TMP DP  RH WIND       PRES   REMARKS
AINSWORTH      MOCLDY    76  62  61 E8        29.97S
BROKEN BOW     MOCLDY    80  64  58 E13       29.95S
O`NEILL        MOCLDY    77  64  62 E6        29.97S
ORD            MOCLDY    76  61  59 E7        29.95S
THEDFORD       MOCLDY    82  64  54 E13       29.96S
$$

NEZ041-046>049-061>064-073>077-083>087-040200-
SOUTH CENTRAL NEBRASKA

CITY           SKY/WX    TMP DP  RH WIND       PRES   REMARKS
GRAND ISLAND   MOCLDY    77  67  71 E6        29.95F
AURORA         MOCLDY    75  68  78 E6        29.95S
HASTINGS       CLOUDY    78  66  66 E8        29.94F
HEBRON         CLOUDY    79  67  68 E7        29.92R
HOLDREGE       CLOUDY    77  70  78 E10       29.94S
KEARNEY *      CLOUDY    77  68  73 E9        29.94F
YORK           MOCLDY    73  68  83 E7        29.95S
$$

NEZ011>018-030>034-042>045-040200-
NORTHEAST NEBRASKA

CITY           SKY/WX    TMP DP  RH WIND       PRES   REMARKS
NORFOLK        MOCLDY    75  62  64 E6        29.95S
ALBION         MOCLDY    74  63  67 E3        29.96S
BLAIR          MOCLDY    75  65  70 CALM      29.95S
COLUMBUS *     MOCLDY    75  63  64 E5        29.95R
FREMONT        MOCLDY    77  63  61 NE5       29.94F
TEKAMAH        CLOUDY    79  68  69 NE5       29.94S
WAYNE          CLOUDY    76  67  72 CALM      29.96S
$$

NEZ050>053-065>068-078-088>093-040200-
SOUTHEAST NEBRASKA

CITY           SKY/WX    TMP DP  RH WIND       PRES   REMARKS
LINCOLN        MOCLDY    79  65  62 E8        29.94S
OMAHA EPPLEY   MOCLDY    79  66  64 NE5       29.93S
BEATRICE       CLOUDY    77  68  75 E5        29.93R
FALLS CITY     MOCLDY    77  71  82 E8        29.91S
NEBRASKA CITY  MOCLDY    75  64  68 NE5       29.94S
PLATTSMOUTH    MOCLDY    74  66  76 E5        29.94S
$$

NEZ044-045-051>053-067-040200-
OMAHA AREA

CITY           SKY/WX    TMP DP  RH WIND       PRES   REMARKS
OMAHA EPPLEY   MOCLDY    79  66  64 NE5       29.93S
BLAIR          MOCLDY    75  65  70 CALM      29.95S
FREMONT        MOCLDY    77  63  61 NE5       29.94F
MILLARD        MOCLDY    78  63  59 CALM      29.93S
OFFUTT AFB     MOCLDY    76  65  70 E6        29.93S
PLATTSMOUTH    MOCLDY    74  66  76 E5        29.94S
WAHOO          FAIR      75  67  76 NE5       29.94S
$$


USA.gov is the U.S. government's official web portal to all federal, state and local government web resources and services.